Showing default

BANGABANDHUSAT-1, 43463

Orbit data source: Space-Track

BANGABANDHUSAT-1, 43463 is a payload satellite owned by BCSCL (BD) in GEO that was launched on Fri, 11 May 2018 UTC via an FALCON 9 launch vehicle from the Air Force Eastern Test Range (AFETR). Payload-class satellites include a variety of spacecraft equipped with specific instruments for various scientific and technological missions. These include communications satellites like Starlink; space stations such as the ISS; scientific satellites like the Hubble; Earth observation satellites from companies like Planet Labs, Umbra, and HawkEye 360; GPS; miniature CubeSats for education and research; and military/defense satellites.

Not visible in the next 10 days
Identifier
43463, 2018-044A
Orbit
GEO
Country
Flag of BDBD / BGD
Related business
Manufacturer
Thales Alenia
Mission
Operational Commercial Communications
Bus & Motor
SPACEBUS 4000B2, S400
Mass
~3,700 kg wet, ~2,000 kg dry
Launch date (UTC)
2018-05-11 (8 years ago)
Launch vehicle
FALCON 9
Launch site
Air Force Eastern Test Range (AFETR)
Object type
Payload
Rocket body
Debris
Shape & HBR
Box + 2 Pan, 19.0 m
Radar Cross Section
39.423 m², Large (>1 m²)

Expand to show TLE details & history
Last TLE update: 2 days ago

TLE from 2 days ago
0 BANGABANDHUSAT-1
1 43463U 18044A   26171.44628654 -.00000367  00000-0  00000+0 0  9999
2 43463   0.0361  91.8229 0001868   7.1568  89.4313  1.00273295 29742
Epoch: 2026-06-20T10:42Z
TLE epoch observation values (Epoch: 2026-06-20T10:42:39.157Z)
Latitude
0.02893°
Longitude
119.12084°
Altitude
35,785.594 km
Speed
3.075 km/s
True Right ascension
12h 33m 46s
True Declination
0° 01' 44"
Sunlit
Object was in daylight at epoch
Visualization orbit readout
Latitude
Unknown
Longitude
Unknown
Altitude
Unknown
Speed
Unknown
Apparent Right ascension
Unknown
Apparent Declination
Unknown
Sunlit
N/A
Visualization observer readout
Local Sidereal Time
21:29:29
Azimuth
Unknown
Elevation
Unknown
Doppler factor
Unknown
Orbital elements
Apogee altitude
35,795.119 km
Perigee altitude
35,779.366 km
Semi-major axis
42,165.379 km
Eccentricity
0.00019
Inclination
0.0361°
RAAN
91.8229°
Arg. of periapsis
7.1568°
True anomaly
89.4527°
Mean anomaly
89.4313°
Eccentric anomaly
89.442°
Mean motion
0.25067 °/min
Orbital period
1,436.13 mins
BSTAR
0
Loading maneuver chart data...
Computing Atmospheric mass density...
Loading historical data...
Loading historical data...
Loading historical data...
Loading historical data...
Loading historical data...
Loading historical data...
Loading historical data...
Other satellites on launch #44 in the year 2018 (2018-05-11 UTC)

Documentation

Showing up to 5 results
|